Flag for Egypt Weather past 2 weeks in Al Jizah, Egypt

Now
75 °F

Sunny.


Feels Like: 76 °F
Forecast: 56 / 89 °F
Wind: 12 mph from Northeast

Location: Cairo Airport

Current Time: Apr 25, 2015 at 1:14:48 PM

Latest Report: Apr 25, 2015 at 1:00 PM


Visibility: 10 mi

Pressure: 30.09 "Hg

Humidity: 22%

Dew point: 34 °F

Location of Al JizahLocation

Historic Weather in Al Jizah — Graph

°F

Al Jizah temperature yesterday

Maximum temperature yesterday: 72 °F (at 3:30 PM)
Minimum temperature yesterday: 55 °F (at 2:00 AM)
Average temperature yesterday: 63 °F

Past Weeks' High & Low Weather Summary

 TemperatureHumidityPressure
High95 °F (Apr 20, 2:30 PM)94% (Apr 14, 4:30 AM)30.33 "Hg (Apr 14, 4:30 AM)
Low52 °F (Apr 11, 6:00 AM)8% (Apr 20, 1:30 PM)29.86 "Hg (Apr 20, 3:30 PM)
Average66 °F47%30.09 "Hg
* Reported Apr 10 12:00 Noon — Apr 25 12:00 Noon, Al Jizah, Weather by CustomWeather, © 2015

Note: Actual official high and low records may vary slightly from our data, if they occured in-between our weather recording intervals... More about our weather records

Advertising

Al Jizah weather history for previous 24 hours

 ConditionsComfort  
Time TempWeatherWind HumidityBarometerVisibility
12:00 PM
Sat, Apr 25
72 °FSunny.12 mph25%30.12 "Hg10 mi
11:30 AM72 °FSunny.12 mph25%30.15 "Hg10 mi
11:00 AM70 °FSunny.13 mph27%30.15 "Hg10 mi
10:30 AM68 °FSunny.14 mph26%30.15 "Hg10 mi
10:00 AM66 °FSunny.14 mph32%30.15 "Hg10 mi
9:30 AM64 °FSunny.15 mph37%30.15 "Hg10 mi
9:00 AM64 °FSunny.15 mph37%30.15 "Hg10 mi
8:30 AM63 °FSunny.15 mph39%30.18 "Hg10 mi
8:00 AM61 °FSunny.15 mph48%30.18 "Hg10 mi
7:30 AM59 °FSunny.10 mph51%30.18 "Hg10 mi
7:00 AM57 °FSunny.10 mph59%30.18 "Hg10 mi
6:30 AM55 °FSunny.9 mph63%30.15 "Hg10 mi
6:00 AM54 °FSunny.7 mph67%30.15 "Hg10 mi
5:30 AM54 °FSunny.7 mph67%30.15 "Hg10 mi
5:00 AM54 °FClear.5 mph67%30.15 "Hg10 mi
4:30 AM54 °FClear.7 mph67%30.15 "Hg10 mi
4:00 AM55 °FClear.7 mph63%30.15 "Hg10 mi
3:30 AM55 °FClear.5 mph63%30.15 "Hg10 mi
3:00 AM55 °FClear.5 mph63%30.15 "Hg10 mi
2:30 AM57 °FClear.6 mph59%30.18 "Hg10 mi
2:00 AM57 °FClear.6 mph59%30.18 "Hg10 mi
1:30 AM57 °FClear.6 mph59%30.18 "Hg10 mi
1:00 AM57 °FClear.6 mph59%30.18 "Hg10 mi
12:30 AM59 °FClear.7 mph55%30.18 "Hg10 mi
12:00 AM59 °FClear.7 mph55%30.18 "Hg10 mi
11:30 PM
Fri, Apr 24
61 °FClear.9 mph52%30.21 "Hg10 mi
11:00 PM61 °FClear.9 mph52%30.21 "Hg10 mi
10:30 PM61 °FClear.9 mph48%30.21 "Hg10 mi
10:00 PM61 °FClear.9 mph48%30.21 "Hg10 mi
9:30 PM63 °FClear.12 mph45%30.21 "Hg10 mi
9:00 PM63 °FClear.14 mph42%30.21 "Hg10 mi
8:30 PM68 °FClear.7 mph28%30.18 "Hg10 mi
8:00 PM68 °FClear.7 mph28%30.18 "Hg10 mi
7:30 PM68 °FClear.7 mph28%30.15 "Hg10 mi
7:00 PM70 °FClear.7 mph27%30.18 "Hg10 mi
6:30 PM70 °FClear.7 mph27%30.15 "Hg10 mi
6:00 PM70 °FSunny.6 mph27%30.15 "Hg10 mi
5:30 PM72 °FSunny.7 mph25%30.15 "Hg10 mi
5:00 PM70 °FSunny.6 mph23%30.15 "Hg10 mi
4:30 PM72 °FSunny.6 mph23%30.15 "Hg10 mi
4:00 PM72 °FSunny.5 mph23%30.18 "Hg10 mi
3:30 PM72 °FSunny.2 mph23%30.18 "Hg10 mi
3:00 PM70 °FSunny.5 mph25%30.18 "Hg10 mi
2:30 PM70 °FSunny.2 mph23%30.18 "Hg10 mi
2:00 PM70 °FSunny.5 mph25%30.18 "Hg10 mi
1:30 PM70 °FSunny.2 mph23%30.18 "Hg10 mi
1:00 PM68 °FSunny.5 mph24%30.21 "Hg10 mi
Weather by CustomWeather, © 2015

See weather overviewHow to use our weather pages